When you browse on this site, cookies collect data to enhance your experience and personalize the content and advertising you see.
Visit our Privacy Policy to learn more. By continuing to use the site, you agree to this use of cookies and data.
  • In Hungary
  • List of Countries
  • For 7 days
  • Water Temperature
  • Weather Map
  • News
  • Weather Widgets
  • user-avatar
    Login

    Hourly Weather Koryukovka

    Today, 6 April, Monday

    Time Temperature Precipitation Wind Pressure Humidity
    00:00 +1°C° 0 mm 3 mps 762 mmHg 64%
    01:00 +1°C° 0 mm 3 mps 763 mmHg 64%
    02:00 +1°C° 0 mm 3 mps 763 mmHg 64%
    03:00 0°C° 0 mm 3 mps 763 mmHg 65%
    04:00 0°C° 0 mm 3 mps 763 mmHg 67%
    05:00 -1°C° 0 mm 2 mps 764 mmHg 68%
    06:00 +1°C° 0 mm 2 mps 764 mmHg 63%
    07:00 +3°C° 0 mm 2 mps 764 mmHg 58%
    08:00 +4°C° 0 mm 2 mps 764 mmHg 53%
    09:00 +5°C° 0 mm 3 mps 765 mmHg 46%
    10:00 +7°C° 0 mm 3 mps 765 mmHg 40%
    11:00 +9°C° 0 mm 3 mps 765 mmHg 33%
    12:00 +10°C° 0 mm 3 mps 765 mmHg 35%
    13:00 +10°C° 0 mm 4 mps 765 mmHg 36%
    14:00 +11°C° 0 mm 4 mps 764 mmHg 37%
    15:00 +11°C° 0 mm 4 mps 764 mmHg 41%
    16:00 +11°C° 0 mm 4 mps 764 mmHg 46%
    17:00 +10°C° 0 mm 4 mps 764 mmHg 50%
    18:00 +9°C° 0 mm 3 mps 764 mmHg 56%
    19:00 +8°C° 0 mm 3 mps 764 mmHg 62%
    20:00 +6°C° 0 mm 2 mps 764 mmHg 67%
    21:00 +6°C° 0 mm 2 mps 764 mmHg 68%
    22:00 +6°C° 0 mm 2 mps 764 mmHg 69%
    23:00 +5°C° 0 mm 2 mps 764 mmHg 69%

    Tomorrow, 7 April, Tuesday

    Time Temperature Precipitation Wind Pressure Humidity
    00:00 +5°C° 0 mm 2 mps 764 mmHg 70%
    01:00 +5°C° 0 mm 2 mps 764 mmHg 71%
    02:00 +4°C° 0 mm 2 mps 764 mmHg 72%
    03:00 +4°C° 0 mm 2 mps 764 mmHg 73%
    04:00 +4°C° 0 mm 2 mps 764 mmHg 75%
    05:00 +3°C° 0 mm 2 mps 765 mmHg 77%
    06:00 +6°C° 0 mm 1 mps 765 mmHg 71%
    07:00 +7°C° 0 mm 1 mps 764 mmHg 66%
    08:00 +9°C° 0 mm 1 mps 764 mmHg 61%
    09:00 +10°C° 0 mm 1 mps 764 mmHg 55%
    10:00 +12°C° 0 mm 1 mps 765 mmHg 49%
    11:00 +13°C° 0 mm 1 mps 765 mmHg 44%
    12:00 +14°C° 0 mm 2 mps 764 mmHg 41%
    13:00 +15°C° 0 mm 2 mps 764 mmHg 39%
    14:00 +14°C° 0 mm 3 mps 763 mmHg 36%
    15:00 +14°C° 0 mm 3 mps 763 mmHg 38%
    16:00 +14°C° 0 mm 3 mps 763 mmHg 39%
    17:00 +14°C° 0 mm 3 mps 762 mmHg 40%
    18:00 +12°C° 0 mm 3 mps 762 mmHg 44%
    19:00 +11°C° 0 mm 3 mps 762 mmHg 49%
    20:00 +9°C° 0 mm 3 mps 761 mmHg 53%
    21:00 +9°C° 0 mm 3 mps 761 mmHg 54%
    22:00 +8°C° 0 mm 3 mps 761 mmHg 55%
    23:00 +8°C° 0 mm 3 mps 761 mmHg 56%

    Day after tomorrow, 8 April, Wednesday

    Time Temperature Precipitation Wind Pressure Humidity
    00:00 +6°C° 0 mm 4 mps 760 mmHg 57%
    01:00 +6°C° 0 mm 4 mps 760 mmHg 58%
    02:00 +5°C° 0 mm 4 mps 759 mmHg 59%
    03:00 +5°C° 0 mm 4 mps 759 mmHg 60%
    04:00 +5°C° 0 mm 4 mps 759 mmHg 61%
    05:00 +5°C° 0 mm 4 mps 758 mmHg 62%
    06:00 +6°C° 0 mm 5 mps 758 mmHg 61%
    07:00 +7°C° 0 mm 5 mps 757 mmHg 61%
    08:00 +8°C° 0 mm 5 mps 757 mmHg 60%
    09:00 +10°C° 0 mm 6 mps 757 mmHg 59%
    10:00 +11°C° 0 mm 6 mps 757 mmHg 57%
    11:00 +14°C° 0 mm 6 mps 757 mmHg 55%
    12:00 +14°C° 0 mm 6 mps 757 mmHg 53%
    13:00 +15°C° 0 mm 5 mps 756 mmHg 51%
    14:00 +15°C° 0 mm 5 mps 756 mmHg 49%
    15:00 +15°C° 0 mm 5 mps 756 mmHg 49%
    16:00 +15°C° 0 mm 5 mps 756 mmHg 49%
    17:00 +14°C° 0 mm 4 mps 756 mmHg 50%
    18:00 +13°C° 0 mm 4 mps 756 mmHg 55%
    19:00 +11°C° 0 mm 3 mps 756 mmHg 61%
    20:00 +9°C° 0 mm 2 mps 756 mmHg 66%
    21:00 +8°C° 0 mm 2 mps 756 mmHg 67%
    22:00 +8°C° 0 mm 2 mps 756 mmHg 69%
    23:00 +7°C° 0 mm 2 mps 756 mmHg 70%

    9 April, Thursday

    Time Temperature Precipitation Wind Pressure Humidity
    00:00 +7°C° 0 mm 2 mps 756 mmHg 72%
    01:00 +7°C° 0 mm 1 mps 756 mmHg 73%
    02:00 +7°C° 0 mm 1 mps 756 mmHg 75%
    03:00 +6°C° 0 mm 1 mps 756 mmHg 76%
    04:00 +6°C° 0 mm 1 mps 755 mmHg 76%
    05:00 +4°C° 0 mm 0 mps 755 mmHg 77%
    06:00 +7°C° 0 mm 1 mps 755 mmHg 72%
    07:00 +8°C° 0 mm 1 mps 755 mmHg 66%
    08:00 +10°C° 0 mm 1 mps 755 mmHg 60%
    09:00 +11°C° 0 mm 1 mps 755 mmHg 55%
    10:00 +13°C° 0 mm 2 mps 754 mmHg 50%
    11:00 +14°C° 0 mm 2 mps 754 mmHg 44%
    12:00 +15°C° 0 mm 2 mps 753 mmHg 43%
    13:00 +16°C° 0 mm 2 mps 753 mmHg 41%
    14:00 +17°C° 0 mm 3 mps 752 mmHg 39%
    15:00 +17°C° 0 mm 3 mps 752 mmHg 41%
    16:00 +17°C° 0 mm 3 mps 751 mmHg 43%
    17:00 +17°C° 0 mm 3 mps 751 mmHg 45%
    18:00 +14°C° 0 mm 3 mps 750 mmHg 49%
    19:00 +13°C° 0 mm 3 mps 750 mmHg 54%
    20:00 +11°C° 0 mm 3 mps 750 mmHg 59%
    21:00 +11°C° 0 mm 3 mps 750 mmHg 59%
    22:00 +11°C° 0 mm 3 mps 749 mmHg 59%
    23:00 +11°C° 0 mm 3 mps 749 mmHg 59%

    10 April, Friday

    Time Temperature Precipitation Wind Pressure Humidity
    00:00 +11°C° 0 mm 3 mps 748 mmHg 61%
    01:00 +10°C° 0 mm 3 mps 748 mmHg 64%
    02:00 +10°C° 0 mm 3 mps 747 mmHg 67%
    03:00 +9°C° 0 mm 3 mps 747 mmHg 68%
    04:00 +8°C° 0 mm 3 mps 746 mmHg 70%
    05:00 +8°C° 0 mm 3 mps 746 mmHg 71%
    06:00 +8°C° 0 mm 4 mps 746 mmHg 68%
    07:00 +10°C° 0 mm 4 mps 746 mmHg 66%
    08:00 +10°C° 0 mm 5 mps 746 mmHg 63%
    09:00 +10°C° 0.1 mm 5 mps 746 mmHg 65%
    10:00 +10°C° 0.1 mm 5 mps 746 mmHg 68%
    11:00 +10°C° 0.1 mm 5 mps 746 mmHg 70%
    12:00 +10°C° 0.1 mm 6 mps 746 mmHg 66%
    13:00 +10°C° 0.1 mm 7 mps 747 mmHg 62%
    14:00 +10°C° 0.1 mm 7 mps 747 mmHg 57%
    15:00 +9°C° 0.1 mm 7 mps 747 mmHg 57%
    16:00 +9°C° 0.1 mm 7 mps 748 mmHg 56%
    17:00 +8°C° 0.1 mm 7 mps 748 mmHg 55%
    18:00 +7°C° 0 mm 6 mps 748 mmHg 57%
    19:00 +6°C° 0 mm 4 mps 749 mmHg 59%
    20:00 +5°C° 0 mm 3 mps 749 mmHg 61%
    21:00 +4°C° 0 mm 3 mps 750 mmHg 61%
    22:00 +4°C° 0 mm 4 mps 750 mmHg 61%
    23:00 +4°C° 0 mm 4 mps 750 mmHg 61%

    11 April, Saturday

    Time Temperature Precipitation Wind Pressure Humidity
    00:00 +4°C° 0 mm 4 mps 750 mmHg 64%
    01:00 +3°C° 0 mm 4 mps 750 mmHg 68%
    02:00 +3°C° 0 mm 4 mps 750 mmHg 71%
    03:00 +1°C° 0 mm 4 mps 750 mmHg 73%
    04:00 +1°C° 0 mm 4 mps 751 mmHg 75%
    05:00 +1°C° 0 mm 4 mps 751 mmHg 77%
    06:00 +1°C° 0 mm 5 mps 751 mmHg 68%
    07:00 +1°C° 0 mm 5 mps 752 mmHg 60%
    08:00 +2°C° 0 mm 5 mps 752 mmHg 51%
    09:00 +3°C° 0 mm 5 mps 752 mmHg 48%
    10:00 +5°C° 0 mm 5 mps 752 mmHg 46%
    11:00 +6°C° 0 mm 5 mps 752 mmHg 43%
    12:00 +7°C° 0 mm 5 mps 752 mmHg 42%
    13:00 +7°C° 0 mm 5 mps 752 mmHg 40%
    14:00 +8°C° 0 mm 5 mps 752 mmHg 39%
    15:00 +8°C° 0 mm 5 mps 752 mmHg 40%
    16:00 +7°C° 0 mm 4 mps 752 mmHg 41%
    17:00 +7°C° 0 mm 4 mps 752 mmHg 42%
    18:00 +6°C° 0 mm 4 mps 752 mmHg 47%
    19:00 +5°C° 0 mm 3 mps 753 mmHg 52%
    20:00 +4°C° 0 mm 2 mps 753 mmHg 56%
    21:00 +4°C° 0 mm 2 mps 753 mmHg 57%
    22:00 +4°C° 0 mm 2 mps 753 mmHg 59%
    23:00 +3°C° 0 mm 2 mps 753 mmHg 60%
    Show more